[[{"header":{"parameterUnit":"m.s-1","parameterCategory":1,"la1":30.2991,"la2":30.254,"lo1":-89.0895,"lo2":-89.0444,"dy":0.0017,"dx":0.0017,"nx":28,"ny":28,"refTime":"2025-05-14T21:00:00:Z","depth":0,"parameterNumber":2,"parameterNumberName":"U-component_of_WINDS"},"data":[0,0,0,0,0,0,0,0,0,0,0,0,0,0,0,0,0,0,0,0,0,0,0,0,0,0,0,0,0,0,0,0,0,0,0,0,0,0,0,0,0,0,0,0,0,0,0,0,0,0,0,0,0,0,0,0,0,0,1.8412,1.8412,0,1.8458,1.8458,1.8459,1.8447,1.8446,1.8445,1.8444,1.8492,1.8494,1.8496,0,0,0,0,0,0,0,0,0,0,0,0,0,1.8314,1.8316,1.8412,1.8412,1.8413,1.8458,1.8458,1.8459,1.8447,1.8446,1.8445,1.8444,1.8491,1.8494,1.8496,0,0,0,0,0,0,0,0,0,0,0,0,0,1.8358,1.8316,1.8412,1.8413,1.8413,1.8458,1.8458,1.8459,1.8447,1.8446,1.8445,1.8443,1.849,1.8493,1.8496,1.8543,0,0,1.8506,1.8507,0,0,0,0,0,0,0,0,1.8355,1.8361,1.8412,1.8413,1.8413,1.8445,1.8441,1.8487,1.8448,1.8434,1.8444,1.8443,1.8477,1.8482,1.8493,1.8545,1.8547,1.8506,1.8508,1.851,1.8511,0,0,0,0,0,0,0,1.8352,1.8359,1.843,1.8413,1.8413,1.841,1.8415,1.845,1.8463,1.8436,1.8435,1.844,1.8478,1.849,1.8494,1.8548,1.8506,1.8509,1.8511,1.8512,1.864,1.8641,0,0,0,0,0,0,1.8349,1.8357,1.8429,1.8431,1.838,1.8413,1.8419,1.8436,1.8463,1.8465,1.8441,1.844,1.8485,1.8491,1.8496,1.8551,1.851,1.8513,1.8514,1.8638,1.864,1.8642,0,0,0,0,0,0,1.8346,1.8355,1.8427,1.8394,1.8403,1.8416,1.8437,1.8438,1.8451,1.8467,1.8469,1.8452,1.8485,1.8491,1.8531,1.8553,1.8514,1.8517,1.8636,1.8639,1.8641,1.8663,0,0,0,0,0,0,1.8344,1.8354,1.8372,1.8394,1.8405,1.8462,1.8438,1.844,1.8456,1.8454,1.8478,1.848,1.8484,1.8527,1.8534,1.8557,1.8519,1.8635,1.8637,1.864,1.8661,1.8666,1.8671,0,0,0,0,0,1.834,1.8377,1.8373,1.8382,1.8427,1.8463,1.8469,1.8472,1.8458,1.8476,1.8486,1.8479,1.8549,1.8531,1.8539,1.8563,1.8633,1.8637,1.864,1.8659,1.8665,1.8671,0,0,0,0,0,0,1.8358,1.838,1.8376,1.8421,1.844,1.8461,1.8484,1.8479,1.8503,1.85,1.8504,1.8509,1.8549,1.856,1.8539,1.8609,1.8589,1.8594,1.86,1.8607,1.8612,1.8608,1.8522,0,0,0,0,0,1.8367,1.8394,1.8412,1.845,1.846,1.847,1.8486,1.8487,1.8506,1.8514,1.8528,1.8547,1.8573,1.8591,1.8616,1.8662,1.8667,1.8683,1.8688,1.8692,1.8696,1.872,1.8727,1.8653,1.8653,1.8653,0,0,1.8386,1.8401,1.8418,1.8454,1.8469,1.8496,1.8477,1.8507,1.8527,1.8519,1.8557,1.8568,1.859,1.8633,1.8652,1.8643,1.8718,1.8696,1.8699,1.8701,1.8725,1.8732,1.8738,1.8655,1.8654,1.8654,0,0,1.8435,1.8449,1.8482,1.8497,1.852,1.8526,1.8534,1.8555,1.8562,1.86,1.8594,1.8618,1.8664,1.8679,1.8693,1.8747,1.8741,1.8755,1.8781,1.8805,1.8811,1.8816,1.8834,1.8841,1.8759,1.8759,1.876,0,1.8455,1.8497,1.85,1.853,1.8546,1.8539,1.8572,1.8587,1.8616,1.8627,1.8616,1.8672,1.8687,1.8733,1.8746,1.8757,1.8766,1.8752,1.8809,1.8815,1.882,1.8837,1.8844,1.8761,1.8761,1.8761,1.8761,0,1.8521,1.855,1.8573,1.8602,1.862,1.8652,1.8659,1.8677,1.8677,1.8684,1.8723,1.874,1.8768,1.8779,1.8779,1.8825,1.8818,1.8808,1.8789,1.8828,1.8845,1.8852,1.8763,1.8763,1.8762,1.8762,0,0,1.8582,1.8611,1.862,1.8632,1.8656,1.8678,1.8709,1.8737,1.8752,1.8772,1.8798,1.8836,1.8827,1.8842,1.8844,1.8865,1.8905,1.8852,1.8853,1.8861,1.8956,1.8963,1.8971,1.8902,1.8903,1.8904,1.8954,0,1.8632,1.8687,1.869,1.874,1.8766,1.876,1.8787,1.8804,1.8812,1.8835,1.8844,1.887,1.8856,1.8866,1.8886,1.8896,1.8924,1.8893,1.8925,1.8926,1.8919,1.898,1.8987,1.9033,1.8961,1.8962,1.8963,0,1.8698,1.872,1.8772,1.8792,1.8803,1.8827,1.8852,1.8874,1.8893,1.8898,1.8915,1.8913,1.8945,1.8924,1.8967,1.8945,1.8959,1.8965,1.8967,1.897,1.8947,1.8983,1.9048,1.9055,1.8973,1.8972,1.8971,0,1.8736,1.8779,1.8816,1.8826,1.885,1.8867,1.8878,1.8896,1.8912,1.8934,1.8944,1.8969,1.8983,1.9002,1.9007,1.8991,1.905,1.9029,1.9053,1.9053,1.9066,1.9065,1.9133,1.9075,1.9075,1.9075,1.9075,0,1.8792,1.8824,1.8833,1.8855,1.8891,1.8894,1.8929,1.8938,1.8954,1.8978,1.8975,1.8997,1.9003,1.9026,1.903,1.9065,1.9071,1.9075,1.9076,1.9075,1.9074,1.9084,1.908,1.9077,1.9077,1.9076,1.9076,0,1.884,1.8848,1.8887,1.8906,1.8912,1.8937,1.8953,1.8975,1.8982,1.9012,1.9019,1.903,1.9058,1.9064,1.9097,1.91,1.914,1.9138,1.9134,1.9133,1.9157,1.9154,1.9233,1.9243,1.9179,1.918,1.9181,0,1.8875,1.8899,1.8921,1.8936,1.8948,1.8973,1.8989,1.8993,1.901,1.9034,1.9052,1.9079,1.91,1.9144,1.9155,1.9179,1.9178,1.9203,1.9181,1.918,1.9177,1.9175,1.9177,1.9208,1.9208,1.9209,1.9209,0,1.8935,1.8937,1.8961,1.8985,1.9004,1.9024,1.9042,1.9055,1.9062,1.9081,1.9109,1.9125,1.9158,1.9184,1.9209,1.922,1.9216,1.9216,1.9223,1.9222,1.9218,1.922,1.9145,1.9214,1.9214,1.9213,1.9213,1.9213,1.8977,1.8998,1.9016,1.9042,1.9057,1.9074,1.9095,1.9104,1.9127,1.9154,1.9155,1.9185,1.9203,1.9236,1.9248,1.9271,1.9263,1.9273,1.9276,1.9278,1.928,1.9215,1.9276,1.9276,1.9276,1.9276,1.9276,0,1.9036,1.9048,1.9071,1.9097,1.9117,1.9112,1.9132,1.9149,1.9175,1.9192,1.9214,1.9245,1.927,1.9283,1.9308,1.9324,1.9323,1.933,1.9329,1.9331,1.9286,1.9277,1.9331,1.9331,1.9331,1.9331,1.9331,1.9331,1.9069,1.9104,1.9109,1.9151,1.9162,1.9191,1.9203,1.9218,1.9232,1.9267,1.9288,1.9296,1.9312,1.9338,1.936,1.9364,1.9373,1.9381,1.9383,1.934,1.9335,1.9329,1.9321,1.9383,1.9384,1.9427,1.9427,1.9428]},{"header":{"parameterUnit":"m.s-1","parameterCategory":1,"la1":30.2991,"la2":30.254,"lo1":-89.0895,"lo2":-89.0444,"dy":0.0017,"dx":0.0017,"nx":28,"ny":28,"refTime":"2025-05-14T21:00:00:Z","depth":0,"parameterNumber":3,"parameterNumberName":"V-component_of_WINDS"},"data":[0,0,0,0,0,0,0,0,0,0,0,0,0,0,0,0,0,0,0,0,0,0,0,0,0,0,0,0,0,0,0,0,0,0,0,0,0,0,0,0,0,0,0,0,0,0,0,0,0,0,0,0,0,0,0,0,0,0,5.7024,5.7024,0,5.703,5.703,5.703,5.6996,5.6995,5.6994,5.6993,5.6997,5.6998,5.6999,0,0,0,0,0,0,0,0,0,0,0,0,0,5.6983,5.6984,5.7024,5.7024,5.7024,5.703,5.703,5.703,5.6996,5.6995,5.6994,5.6993,5.6997,5.6998,5.6999,0,0,0,0,0,0,0,0,0,0,0,0,0,5.6996,5.6984,5.7024,5.7008,5.7007,5.703,5.703,5.703,5.6997,5.6995,5.6994,5.6992,5.6997,5.6998,5.6999,5.7037,0,0,5.7004,5.7005,0,0,0,0,0,0,0,0,5.6995,5.6997,5.701,5.7009,5.7008,5.7011,5.7017,5.7032,5.6997,5.7,5.6993,5.6992,5.7003,5.7004,5.7008,5.7037,5.7038,5.7004,5.7005,5.7006,5.7006,0,0,0,0,0,0,0,5.6994,5.6997,5.7026,5.7011,5.7009,5.7,5.7001,5.702,5.7009,5.7,5.6998,5.6999,5.7002,5.7006,5.7008,5.7038,5.7004,5.7005,5.7006,5.7007,5.71,5.7101,0,0,0,0,0,0,5.6996,5.6996,5.7026,5.7026,5.6998,5.7002,5.7003,5.7011,5.7009,5.7008,5.7,5.6997,5.7005,5.7006,5.7008,5.7053,5.7006,5.7007,5.7008,5.7098,5.71,5.7102,0,0,0,0,0,0,5.6995,5.6999,5.7026,5.7011,5.7014,5.7005,5.7015,5.7012,5.7017,5.7009,5.7007,5.7007,5.7004,5.7006,5.7031,5.7052,5.7008,5.7009,5.7096,5.7099,5.7101,5.7142,0,0,0,0,0,0,5.6994,5.6999,5.7013,5.7011,5.7015,5.7049,5.7016,5.7013,5.702,5.7016,5.7015,5.7013,5.7003,5.7029,5.7032,5.7053,5.701,5.7094,5.7097,5.71,5.7139,5.7146,5.7152,0,0,0,0,0,5.6993,5.7024,5.7014,5.7018,5.7032,5.705,5.7052,5.7039,5.7022,5.7036,5.7031,5.7013,5.7049,5.7031,5.7035,5.7057,5.7093,5.7096,5.71,5.7136,5.7144,5.7151,0,0,0,0,0,0,5.7027,5.7023,5.7012,5.7044,5.7048,5.7045,5.7062,5.7049,5.7057,5.7053,5.7037,5.7037,5.7065,5.7063,5.7043,5.7094,5.7068,5.7072,5.7094,5.7102,5.7108,5.7108,5.7011,0,0,0,0,0,5.7038,5.7054,5.7049,5.7078,5.708,5.7071,5.7078,5.7069,5.7072,5.7073,5.707,5.7073,5.7085,5.7093,5.7104,5.7139,5.7138,5.7156,5.7162,5.7167,5.7171,5.719,5.7198,5.7113,5.7113,5.7113,0,0,5.7062,5.7062,5.7072,5.7085,5.7086,5.7103,5.7073,5.709,5.7102,5.7075,5.7099,5.7097,5.71,5.713,5.7143,5.713,5.7195,5.7172,5.7176,5.7177,5.7195,5.7203,5.721,5.7116,5.7115,5.7115,0,0,5.7113,5.7114,5.7138,5.7141,5.7145,5.7139,5.7145,5.7144,5.7142,5.7166,5.7147,5.716,5.7181,5.7184,5.7188,5.7242,5.7227,5.7246,5.7279,5.7298,5.7305,5.7311,5.7331,5.7338,5.725,5.725,5.725,0,5.7141,5.7165,5.7152,5.7172,5.7179,5.7156,5.7181,5.7184,5.7191,5.7196,5.7181,5.7207,5.7207,5.7239,5.7252,5.7256,5.7262,5.7246,5.7305,5.7311,5.7316,5.7335,5.7342,5.7253,5.7253,5.7252,5.7252,0,5.72,5.7217,5.7236,5.7245,5.7254,5.7276,5.7266,5.7276,5.7266,5.7262,5.7287,5.7286,5.7297,5.7303,5.7293,5.7333,5.7325,5.7308,5.7281,5.7327,5.7344,5.7351,5.7256,5.7255,5.7255,5.7254,0,0,5.7272,5.7275,5.7282,5.7286,5.7289,5.7302,5.7323,5.7335,5.7344,5.735,5.7367,5.7386,5.7371,5.7376,5.7366,5.7382,5.7426,5.7363,5.7363,5.7375,5.7471,5.7485,5.7493,5.7416,5.7417,5.7418,5.7471,0,5.7322,5.736,5.735,5.7387,5.7403,5.7383,5.7401,5.7405,5.7402,5.7415,5.7411,5.7425,5.7403,5.7406,5.7421,5.7418,5.7445,5.7413,5.7432,5.7433,5.7432,5.7502,5.7516,5.7566,5.7478,5.7479,5.748,0,5.7386,5.7396,5.7435,5.7437,5.7444,5.7461,5.7471,5.7484,5.7488,5.7484,5.7491,5.7478,5.7499,5.7472,5.7501,5.748,5.7486,5.7486,5.7487,5.7489,5.7459,5.7506,5.7582,5.759,5.749,5.749,5.7489,0,5.7435,5.7458,5.7485,5.7489,5.7492,5.7505,5.7506,5.7509,5.7517,5.7526,5.7531,5.7542,5.7548,5.7557,5.7547,5.7528,5.7578,5.755,5.7575,5.7576,5.7586,5.7586,5.7665,5.759,5.759,5.759,5.759,0,5.7493,5.7518,5.7508,5.7524,5.7552,5.754,5.7567,5.7566,5.757,5.7585,5.7568,5.7583,5.7569,5.7583,5.7575,5.7601,5.7604,5.7601,5.7599,5.7603,5.7604,5.7608,5.7604,5.7592,5.7592,5.7591,5.7591,0,5.7552,5.7547,5.7575,5.7576,5.7577,5.7597,5.7598,5.7613,5.7609,5.7629,5.7633,5.7627,5.7642,5.7634,5.7649,5.7644,5.7678,5.767,5.7677,5.7675,5.7701,5.7699,5.7786,5.7797,5.7715,5.7715,5.7716,0,5.759,5.7609,5.7613,5.7623,5.7626,5.7642,5.7651,5.764,5.7649,5.7657,5.7671,5.7686,5.7696,5.7722,5.7719,5.7731,5.7724,5.7753,5.7725,5.7729,5.7725,5.7724,5.7726,5.7759,5.776,5.7761,5.7761,0,5.7657,5.7653,5.7667,5.768,5.7692,5.7701,5.7709,5.7718,5.7707,5.7719,5.7735,5.7744,5.7761,5.7775,5.7786,5.7787,5.7773,5.777,5.7777,5.7782,5.7785,5.7784,5.7693,5.7768,5.7768,5.7767,5.7767,5.7767,5.7707,5.7723,5.7729,5.7745,5.7751,5.7759,5.7774,5.7772,5.7786,5.78,5.7792,5.7812,5.7816,5.7829,5.7832,5.7847,5.7835,5.7845,5.7847,5.785,5.7854,5.7782,5.7849,5.7849,5.7849,5.7848,5.7848,0,5.7773,5.7777,5.7792,5.7805,5.7817,5.7804,5.7812,5.7824,5.7842,5.7848,5.7859,5.7879,5.7893,5.7891,5.7904,5.7916,5.791,5.792,5.7919,5.792,5.7863,5.7857,5.7925,5.7925,5.7925,5.7925,5.7925,5.7925,5.781,5.7838,5.7835,5.7866,5.7868,5.7888,5.7895,5.7902,5.7907,5.793,5.7942,5.7941,5.7944,5.7958,5.797,5.7969,5.7975,5.7988,5.7985,5.7932,5.7924,5.7917,5.791,5.7989,5.7989,5.804,5.8041,5.8041]}]]